TimeCET,TemperatureF,Dew PointF,Humidity,Sea Level PressureIn,VisibilityMPH,Wind Direction,Wind SpeedMPH,Gust SpeedMPH,PrecipitationIn,Events,Conditions,WindDirDegrees,DateUTC
12:55 AM,46.4,44.6,93,30.06,6.2,SSW,3.5,-,N/A,,Partly Cloudy,200,2014-02-07 23:55:00
1:00 AM,46,45,93,30.09,11,SSW,3.5,,,,Scattered Clouds,200,2014-02-08 00:00:00
1:55 AM,46.4,46.4,100,30.06,6.2,NNW,1.2,-,N/A,,Scattered Clouds,330,2014-02-08 00:55:00
2:55 AM,48.2,48.2,100,30.04,6.2,West,3.5,-,N/A,,Scattered Clouds,270,2014-02-08 01:55:00
3:55 AM,46.4,46.4,100,30.04,6.2,West,3.5,-,N/A,,Scattered Clouds,270,2014-02-08 02:55:00
4:00 AM,46,46,100,30.05,10,West,3.5,,,,Partly Cloudy,270,2014-02-08 03:00:00
4:55 AM,48.2,48.2,100,30.01,6.2,WNW,3.5,-,N/A,,Scattered Clouds,300,2014-02-08 03:55:00
5:55 AM,48.2,48.2,100,30.01,6.2,SW,2.3,-,N/A,,Scattered Clouds,230,2014-02-08 04:55:00
6:55 AM,50.0,50.0,100,30.01,6.2,SSW,3.5,-,N/A,,Scattered Clouds,210,2014-02-08 05:55:00
7:00 AM,50,50,100,30.02,6,SSW,3.5,,,,Overcast,210,2014-02-08 06:00:00
7:30 AM,50.0,50.0,100,30.01,5.0,WNW,9.2,-,N/A,Rain-Thunderstorm,Light Thunderstorms and Rain,300,2014-02-08 06:30:00
7:35 AM,50.0,50.0,100,30.01,1.2,WNW,12.7,-,N/A,Rain-Thunderstorm,Thunderstorms and Rain,290,2014-02-08 06:35:00
8:55 AM,50.0,50.0,100,30.01,6.2,WNW,5.8,-,N/A,Rain,Light Rain,300,2014-02-08 07:55:00
9:55 AM,57.2,57.2,100,30.01,6.2,West,11.5,-,N/A,,Scattered Clouds,260,2014-02-08 08:55:00
10:00 AM,57,57,98,30.01,6,West,11.5,,,Rain,Light Rain,260,2014-02-08 09:00:00
10:55 AM,60.8,48.2,63,30.01,6.2,WNW,17.3,-,N/A,,Scattered Clouds,290,2014-02-08 09:55:00
11:55 AM,62.6,46.4,55,30.01,6.2,West,13.8,-,N/A,,Scattered Clouds,280,2014-02-08 10:55:00
12:55 PM,62.6,44.6,52,29.95,6.2,West,13.8,-,N/A,,Scattered Clouds,270,2014-02-08 11:55:00
1:00 PM,63,44,39,29.98,6,West,13.8,,,,Partly Cloudy,270,2014-02-08 12:00:00
1:55 PM,62.6,42.8,48,29.95,6.2,West,16.1,-,N/A,,Scattered Clouds,280,2014-02-08 12:55:00
2:55 PM,60.8,42.8,52,29.95,6.2,West,11.5,-,N/A,,Scattered Clouds,280,2014-02-08 13:55:00
3:55 PM,60.8,42.8,52,29.95,6.2,WNW,9.2,-,N/A,,Scattered Clouds,300,2014-02-08 14:55:00
4:00 PM,61,42,38,29.97,6,WNW,9.2,,,,Scattered Clouds,300,2014-02-08 15:00:00
4:55 PM,60.8,42.8,52,29.95,6.2,WNW,6.9,-,N/A,,Scattered Clouds,290,2014-02-08 15:55:00
5:55 PM,53.6,48.2,82,29.98,6.2,WSW,3.5,-,N/A,,Partly Cloudy,240,2014-02-08 16:55:00
6:55 PM,50.0,48.2,94,29.98,-9999.0,West,5.8,-,N/A,,Clear,280,2014-02-08 17:55:00
7:00 PM,50,47,88,29.99,6,West,5.8,,,,,280,2014-02-08 18:00:00
7:55 PM,50.0,48.2,94,29.98,-9999.0,WNW,5.8,-,N/A,,Clear,300,2014-02-08 18:55:00
8:55 PM,46.4,44.6,93,30.01,-9999.0,WNW,4.6,-,N/A,,Clear,300,2014-02-08 19:55:00
9:55 PM,48.2,48.2,100,30.01,-9999.0,NW,5.8,-,N/A,,Clear,320,2014-02-08 20:55:00
10:00 PM,48,48,99,30.02,6,NW,5.8,,,,,320,2014-02-08 21:00:00
10:55 PM,48.2,48.2,100,30.01,-9999.0,WNW,4.6,-,N/A,,Clear,300,2014-02-08 21:55:00
11:55 PM,48.2,46.4,93,30.01,-9999.0,NW,2.3,-,N/A,,Clear,310,2014-02-08 22:55:00